Time,TemperatureF,DewpointF,PressureIn,WindDirection,WindDirectionDegrees,WindSpeedMPH,WindSpeedGustMPH,Humidity,HourlyPrecipIn,Conditions,Clouds,dailyrainin,SoftwareType,DateUTC
2013-05-27 00:02:00,67.0,51.0,30.26,West,259,0.0,0.0,56,0.00,,,0.00,,2013-05-27 04:02:00,
2013-05-27 00:12:00,67.0,51.0,30.26,West,259,0.0,0.0,56,0.00,,,0.00,,2013-05-27 04:12:00,
2013-05-27 00:23:00,67.0,51.0,30.26,West,259,0.0,0.0,56,0.00,,,0.00,,2013-05-27 04:23:00,
2013-05-27 00:43:00,65.0,52.0,30.25,West,259,0.0,0.0,62,0.00,,,0.00,,2013-05-27 04:43:00,
2013-05-27 00:53:00,65.0,52.0,30.25,West,259,0.0,0.0,62,0.00,,,0.00,,2013-05-27 04:53:00,
2013-05-27 01:02:00,65.0,52.0,30.25,West,259,0.0,0.0,62,0.00,,,0.00,,2013-05-27 05:02:00,
2013-05-27 01:12:00,65.0,52.0,30.25,West,259,0.0,0.0,62,0.00,,,0.00,,2013-05-27 05:12:00,
2013-05-27 01:22:00,64.0,52.0,30.25,West,259,0.0,0.0,66,0.00,,,0.00,,2013-05-27 05:22:00,
2013-05-27 01:32:00,64.0,52.0,30.25,West,259,0.0,0.0,66,0.00,,,0.00,,2013-05-27 05:32:00,
2013-05-27 01:42:00,64.0,52.0,30.25,West,259,0.0,0.0,66,0.00,,,0.00,,2013-05-27 05:42:00,
2013-05-27 01:52:00,63.0,53.0,30.24,West,259,0.0,0.0,69,0.00,,,0.00,,2013-05-27 05:52:00,
2013-05-27 02:02:00,63.0,53.0,30.24,West,259,0.0,0.0,69,0.00,,,0.00,,2013-05-27 06:02:00,
2013-05-27 02:11:00,63.0,53.0,30.24,West,259,0.0,0.0,69,0.00,,,0.00,,2013-05-27 06:11:00,
2013-05-27 02:22:00,62.0,52.0,30.24,West,259,0.0,0.0,70,0.00,,,0.00,,2013-05-27 06:22:00,
2013-05-27 02:32:00,62.0,52.0,30.24,West,259,0.0,0.0,70,0.00,,,0.00,,2013-05-27 06:32:00,
2013-05-27 02:42:00,61.0,52.0,30.24,West,259,0.0,0.0,72,0.00,,,0.00,,2013-05-27 06:42:00,
2013-05-27 02:52:00,61.0,52.0,30.24,West,259,0.0,0.0,72,0.00,,,0.00,,2013-05-27 06:52:00,
2013-05-27 03:02:00,61.0,52.0,30.24,West,259,0.0,0.0,72,0.00,,,0.00,,2013-05-27 07:02:00,
2013-05-27 03:11:00,61.0,52.0,30.23,West,259,0.0,0.0,72,0.00,,,0.00,,2013-05-27 07:11:00,
2013-05-27 03:21:00,61.0,52.0,30.23,West,259,0.0,0.0,72,0.00,,,0.00,,2013-05-27 07:21:00,
2013-05-27 03:32:00,61.0,52.0,30.23,West,259,0.0,0.0,72,0.00,,,0.00,,2013-05-27 07:32:00,
2013-05-27 03:42:00,61.0,52.0,30.23,West,259,0.0,0.0,72,0.00,,,0.00,,2013-05-27 07:42:00,
2013-05-27 03:53:00,61.0,52.0,30.23,West,259,0.0,0.0,71,0.00,,,0.00,,2013-05-27 07:53:00,
2013-05-27 04:02:00,61.0,52.0,30.23,West,259,0.0,0.0,71,0.00,,,0.00,,2013-05-27 08:02:00,
2013-05-27 04:11:00,61.0,52.0,30.23,West,259,0.0,0.0,71,0.00,,,0.00,,2013-05-27 08:11:00,
2013-05-27 04:22:00,61.0,52.0,30.23,West,259,0.0,0.0,73,0.00,,,0.00,,2013-05-27 08:22:00,
2013-05-27 04:33:00,61.0,52.0,30.23,West,259,0.0,0.0,73,0.00,,,0.00,,2013-05-27 08:33:00,
2013-05-27 04:42:00,61.0,52.0,30.23,West,259,0.0,0.0,73,0.00,,,0.00,,2013-05-27 08:42:00,
2013-05-27 04:52:00,60.0,53.0,30.24,West,259,0.0,0.0,77,0.00,,,0.00,,2013-05-27 08:52:00,
2013-05-27 05:02:00,60.0,53.0,30.24,West,259,0.0,0.0,77,0.00,,,0.00,,2013-05-27 09:02:00,
2013-05-27 05:11:00,59.0,52.0,30.24,West,259,0.0,0.0,79,0.00,,,0.00,,2013-05-27 09:11:00,
2013-05-27 05:22:00,59.0,52.0,30.24,West,259,0.0,0.0,79,0.00,,,0.00,,2013-05-27 09:22:00,
2013-05-27 05:33:00,59.0,52.0,30.24,West,259,0.0,0.0,79,0.00,,,0.00,,2013-05-27 09:33:00,
2013-05-27 05:42:00,59.0,52.0,30.24,West,259,0.0,0.0,79,0.00,,,0.00,,2013-05-27 09:42:00,
2013-05-27 05:53:00,58.0,52.0,30.25,West,259,0.0,0.0,81,0.00,,,0.00,,2013-05-27 09:53:00,
2013-05-27 06:03:00,58.0,52.0,30.25,West,259,0.0,0.0,81,0.00,,,0.00,,2013-05-27 10:03:00,
2013-05-27 06:12:00,58.0,52.0,30.25,West,259,0.0,0.0,81,0.00,,,0.00,,2013-05-27 10:12:00,
2013-05-27 06:23:00,58.0,53.0,30.25,West,259,0.0,0.0,83,0.00,,,0.00,,2013-05-27 10:23:00,
2013-05-27 06:32:00,58.0,53.0,30.25,West,259,0.0,0.0,83,0.00,,,0.00,,2013-05-27 10:32:00,
2013-05-27 06:42:00,58.0,53.0,30.25,West,259,0.0,0.0,83,0.00,,,0.00,,2013-05-27 10:42:00,
2013-05-27 06:52:00,58.0,53.0,30.25,West,259,0.0,0.0,83,0.00,,,0.00,,2013-05-27 10:52:00,
2013-05-27 07:02:00,58.0,53.0,30.25,West,259,0.0,0.0,83,0.00,,,0.00,,2013-05-27 11:02:00,
2013-05-27 07:22:00,57.0,53.0,30.28,West,259,0.0,0.0,87,0.00,,,0.00,,2013-05-27 11:22:00,
2013-05-27 07:32:00,57.0,53.0,30.28,West,259,0.0,0.0,87,0.00,,,0.00,,2013-05-27 11:32:00,
2013-05-27 07:42:00,57.0,53.0,30.28,West,259,0.0,0.0,87,0.00,,,0.00,,2013-05-27 11:42:00,
2013-05-27 07:52:00,57.0,54.0,30.29,West,259,0.0,0.0,89,0.00,,,0.00,,2013-05-27 11:52:00,
2013-05-27 08:01:00,57.0,54.0,30.29,West,259,0.0,0.0,89,0.00,,,0.00,,2013-05-27 12:01:00,
2013-05-27 08:11:00,57.0,54.0,30.29,West,259,0.0,0.0,89,0.00,,,0.00,,2013-05-27 12:11:00,
2013-05-27 08:22:00,58.0,55.0,30.29,West,259,0.0,1.0,89,0.00,,,0.00,,2013-05-27 12:22:00,
2013-05-27 08:32:00,58.0,55.0,30.29,West,259,0.0,1.0,89,0.00,,,0.00,,2013-05-27 12:32:00,
2013-05-27 08:42:00,58.0,55.0,30.29,West,259,0.0,1.0,89,0.00,,,0.00,,2013-05-27 12:42:00,
2013-05-27 08:52:00,60.0,57.0,30.30,West,259,0.0,1.0,89,0.00,,,0.00,,2013-05-27 12:52:00,
2013-05-27 09:01:00,60.0,57.0,30.30,West,259,0.0,1.0,89,0.00,,,0.00,,2013-05-27 13:01:00,
2013-05-27 09:11:00,60.0,57.0,30.30,West,259,0.0,1.0,89,0.00,,,0.00,,2013-05-27 13:11:00,
2013-05-27 09:22:00,64.0,58.0,30.30,West,259,0.0,1.0,81,0.00,,,0.00,,2013-05-27 13:22:00,
2013-05-27 09:32:00,64.0,58.0,30.30,West,259,0.0,1.0,81,0.00,,,0.00,,2013-05-27 13:32:00,
2013-05-27 09:42:00,64.0,58.0,30.30,West,259,0.0,1.0,81,0.00,,,0.00,,2013-05-27 13:42:00,
2013-05-27 09:53:00,67.0,58.0,30.30,SE,140,1.0,2.0,74,0.00,,,0.00,,2013-05-27 13:53:00,
2013-05-27 10:02:00,67.0,58.0,30.30,SE,140,1.0,2.0,74,0.00,,,0.00,,2013-05-27 14:02:00,
2013-05-27 10:11:00,67.0,58.0,30.30,SE,140,1.0,2.0,74,0.00,,,0.00,,2013-05-27 14:11:00,
2013-05-27 10:22:00,72.0,60.0,30.29,SE,127,0.0,1.0,66,0.00,,,0.00,,2013-05-27 14:22:00,
2013-05-27 10:32:00,72.0,60.0,30.29,SE,127,0.0,1.0,66,0.00,,,0.00,,2013-05-27 14:32:00,
2013-05-27 10:42:00,72.0,60.0,30.29,SE,127,0.0,1.0,66,0.00,,,0.00,,2013-05-27 14:42:00,
2013-05-27 10:52:00,76.0,61.0,30.29,East,99,0.0,1.0,60,0.00,,,0.00,,2013-05-27 14:52:00,
2013-05-27 11:01:00,76.0,61.0,30.29,East,99,0.0,1.0,60,0.00,,,0.00,,2013-05-27 15:01:00,
2013-05-27 11:11:00,79.0,61.0,30.28,East,99,0.0,0.0,55,0.00,,,0.00,,2013-05-27 15:11:00,
2013-05-27 11:22:00,79.0,61.0,30.28,East,99,0.0,0.0,55,0.00,,,0.00,,2013-05-27 15:22:00,
2013-05-27 11:33:00,79.0,61.0,30.28,East,99,0.0,0.0,55,0.00,,,0.00,,2013-05-27 15:33:00,
2013-05-27 11:43:00,79.0,61.0,30.28,East,99,0.0,0.0,55,0.00,,,0.00,,2013-05-27 15:43:00,
2013-05-27 11:53:00,82.0,61.0,30.27,East,99,0.0,1.0,49,0.00,,,0.00,,2013-05-27 15:53:00,
2013-05-27 12:03:00,82.0,61.0,30.27,East,99,0.0,1.0,49,0.00,,,0.00,,2013-05-27 16:03:00,
2013-05-27 12:12:00,82.0,61.0,30.27,East,99,0.0,1.0,49,0.00,,,0.00,,2013-05-27 16:12:00,
2013-05-27 12:23:00,82.0,61.0,30.27,East,99,0.0,1.0,49,0.00,,,0.00,,2013-05-27 16:23:00,
2013-05-27 19:22:00,81.0,58.0,30.19,ESE,107,0.0,0.0,45,0.00,,,0.00,,2013-05-27 23:22:00,
2013-05-27 19:32:00,81.0,58.0,30.19,ESE,107,0.0,0.0,45,0.00,,,0.00,,2013-05-27 23:32:00,
2013-05-27 19:42:00,81.0,58.0,30.19,ESE,107,0.0,0.0,45,0.00,,,0.00,,2013-05-27 23:42:00,
2013-05-27 19:52:00,80.0,60.0,30.19,East,101,0.0,0.0,51,0.00,,,0.00,,2013-05-27 23:52:00,
2013-05-27 20:01:00,80.0,60.0,30.19,East,101,0.0,0.0,51,0.00,,,0.00,,2013-05-28 00:01:00,
2013-05-27 20:11:00,80.0,60.0,30.19,East,101,0.0,0.0,51,0.00,,,0.00,,2013-05-28 00:11:00,
2013-05-27 20:22:00,79.0,60.0,30.18,East,101,0.0,0.0,53,0.00,,,0.00,,2013-05-28 00:22:00,
2013-05-27 20:32:00,79.0,60.0,30.18,East,101,0.0,0.0,53,0.00,,,0.00,,2013-05-28 00:32:00,
2013-05-27 20:42:00,79.0,60.0,30.18,East,101,0.0,0.0,53,0.00,,,0.00,,2013-05-28 00:42:00,
2013-05-27 20:52:00,79.0,60.0,30.18,East,101,0.0,0.0,53,0.00,,,0.00,,2013-05-28 00:52:00,
2013-05-27 21:01:00,79.0,60.0,30.18,East,101,0.0,0.0,53,0.00,,,0.00,,2013-05-28 01:01:00,
2013-05-27 21:22:00,77.0,60.0,30.17,East,101,0.0,0.0,56,0.00,,,0.00,,2013-05-28 01:22:00,
2013-05-27 21:32:00,77.0,60.0,30.17,East,101,0.0,0.0,56,0.00,,,0.00,,2013-05-28 01:32:00,
2013-05-27 21:42:00,77.0,60.0,30.17,East,101,0.0,0.0,56,0.00,,,0.00,,2013-05-28 01:42:00,
2013-05-27 21:52:00,75.0,60.0,30.18,East,101,0.0,0.0,59,0.00,,,0.00,,2013-05-28 01:52:00,
2013-05-27 22:02:00,75.0,60.0,30.18,East,101,0.0,0.0,59,0.00,,,0.00,,2013-05-28 02:02:00,
2013-05-27 22:11:00,75.0,60.0,30.18,East,101,0.0,0.0,59,0.00,,,0.00,,2013-05-28 02:11:00,
2013-05-27 22:22:00,74.0,60.0,30.19,East,101,0.0,0.0,62,0.00,,,0.00,,2013-05-28 02:22:00,
2013-05-27 22:32:00,74.0,60.0,30.19,East,101,0.0,0.0,62,0.00,,,0.00,,2013-05-28 02:32:00,
2013-05-27 22:42:00,74.0,60.0,30.19,East,101,0.0,0.0,62,0.00,,,0.00,,2013-05-28 02:42:00,
2013-05-27 22:52:00,72.0,59.0,30.20,East,101,0.0,0.0,64,0.00,,,0.00,,2013-05-28 02:52:00,
2013-05-27 23:01:00,72.0,59.0,30.20,East,101,0.0,0.0,64,0.00,,,0.00,,2013-05-28 03:01:00,
2013-05-27 23:03:00,72.0,60.0,30.22,East,101,0.0,0.0,67,0.00,,,0.00,,2013-05-28 03:03:00,
2013-05-27 23:11:00,72.0,59.0,30.20,East,101,0.0,0.0,64,0.00,,,0.00,,2013-05-28 03:11:00,
2013-05-27 23:22:00,72.0,60.0,30.22,East,101,0.0,0.0,67,0.00,,,0.00,,2013-05-28 03:22:00,
2013-05-27 23:33:00,72.0,60.0,30.22,East,101,0.0,0.0,67,0.00,,,0.00,,2013-05-28 03:33:00,
2013-05-27 23:43:00,72.0,60.0,30.22,East,101,0.0,0.0,67,0.00,,,0.00,,2013-05-28 03:43:00,
2013-05-27 23:53:00,72.0,60.0,30.22,East,101,0.0,0.0,67,0.00,,,0.00,,2013-05-28 03:53:00,